Back to catalog

CZ-4 DEB

AlivePO
NORAD 26128·DEBRIS·🇨🇳 China

Launched Oct 14, 1999 from Taiyuan Satellite Launch Center

Loading…

Next Passes (next 24 hours)

TLE

FreshSource: Space-Track

Epoch: Sep 14, 2026, 13:22 UTC

1 26128U 99057Q   26257.55730316  .00005351  00000-0  33996-3 0  9998
2 26128  98.6654 115.6138 0020612  68.0808 315.4844 15.09200432429049

Track CZ-4 DEB in real time with AllMySat

Download on the App Store